Weather reports worldwide

Advertisment
Werl, Germany (10424): temperature & dewpoint: 16.02.2019 22:00:00 - 22.02.2019 22:00:00 (CET)Werl, Germany (10424): temperature 5cm & temperature -5cm: 16.02.2019 22:00:00 - 22.02.2019 22:00:00 (CET)Werl, Germany (10424): temperature -20cm & temperature -100cm: 16.02.2019 22:00:00 - 22.02.2019 22:00:00 (CET)Werl, Germany (10424): wind speed & gusts: 16.02.2019 22:00:00 - 22.02.2019 22:00:00 (CET)Werl, Germany (10424): wind direction: 16.02.2019 22:00:00 - 22.02.2019 22:00:00 (CET)Werl, Germany (10424): reduced air pressure: 16.02.2019 22:00:00 - 22.02.2019 22:00:00 (CET)Werl, Germany (10424): visibility: 16.02.2019 22:00:00 - 22.02.2019 22:00:00 (CET)Werl, Germany (10424): sunshine duration: 16.02.2019 22:00:00 - 22.02.2019 22:00:00 (CET)Werl, Germany (10424): precipitation: 16.02.2019 22:00:00 - 22.02.2019 22:00:00 (CET)
Date & Time tt [°C] td [°C] tt 5cm [°C] tt -5cm [°C] tt -20cm [°C] tt -100cm [°C] ff [km/h] ff [kn] fx [km/h] fx [kn] dd ppp [hPa] vv [km] sd [min] rr [mm]
22.02.2019 22:00:00 6,1 4,5 4,9 6,9 7,8 6,3 10 5 20 11 NE 1039,8 7 0 0,0
22.02.2019 21:00:00 7,4 5,0 5,8 7,7 8,0 6,3 12 6 23 12 E 1039,2 12 0 0,0
22.02.2019 20:00:00 8,5 5,6 7,8 8,3 8,1 6,3 13 7 18 10 ENE 1039,3 18 0 0,0
22.02.2019 19:00:00 8,9 6,2 8,1 8,8 8,2 6,3 8 5 16 9 NE 1038,9 13 0 0,0
22.02.2019 18:00:00 9,6 7,6 9,3 9,4 8,2 6,3 8 5 12 6 NE 1038,4 10 0 0,0
22.02.2019 17:00:00 9,9 7,4 9,9 9,9 8,2 6,3 8 5 15 8 E 1038,0 10 0 0,0
22.02.2019 16:00:00 10,1 7,4 10,3 10,2 8,1 6,3 13 7 16 9 ENE 1037,9 8 0 0,0
22.02.2019 15:00:00 10,6 7,1 11,1 10,9 7,9 6,3 10 5 14 8 NE 1037,7 11 0 0,0
22.02.2019 14:00:00 10,7 7,5 11,5 11,1 7,7 6,3 9 5 15 8 NE 1037,3 10 7 0,0
22.02.2019 13:00:00 10,3 7,7 10,7 10,3 7,4 6,3 10 5 14 8 NE 1037,2 8 0 0,0
22.02.2019 12:00:00 10,0 8,0 11,0 9,7 7,2 6,3 8 4 10 5 NNE 1036,9 7 0 0,0
22.02.2019 11:00:00 9,4 7,7 10,0 9,2 7,0 6,3 6 3 10 5 NE 1036,5 6 0 0,0
22.02.2019 10:00:00 8,9 8,1 9,3 8,3 6,9 6,3 5 3 11 6 NW 1035,8 4,0 0 0,0
22.02.2019 09:00:00 8,4 8,0 8,5 7,5 6,9 6,3 5 3 6 4 WNW 1035,0 2,0 0 0,0
22.02.2019 08:00:00 7,9 7,5 7,2 7,3 7,0 6,3 5 3 7 4 WNW 1034,2 1,3 0 0,0
22.02.2019 07:00:00 8,0 7,6 6,9 7,5 7,0 6,3 4 2 8 4 NW 1033,6 1,2 0 0,3
22.02.2019 06:00:00 8,3 7,9 8,1 7,7 7,0 6,3 5 3 9 5 NW 1033,2 0,8 0 0,4
22.02.2019 05:00:00 8,4 8,0 8,2 7,7 7,0 6,3 7 4 12 7 WNW 1032,6 0,8 0 0,3
22.02.2019 04:00:00 8,5 8,0 8,3 7,7 7,0 6,2 9 5 16 9 W 1032,1 1,2 0 0,2
22.02.2019 03:00:00 8,6 8,0 8,3 7,8 7,0 6,2 12 7 18 10 W 1031,8 2,0 0 0,0
22.02.2019 02:00:00 8,6 7,9 8,3 7,8 7,0 6,2 13 7 18 10 W 1031,3 1,7 0 0,0
22.02.2019 01:00:00 8,8 7,9 8,2 7,8 7,0 6,2 16 9 23 12 W 1030,6 2,5 0 0,0
22.02.2019 00:00:00 8,8 8,0 8,5 7,9 7,0 6,2 16 8 21 12 W 1030,3 2,6 0 0,0
21.02.2019 23:00:00 9,0 8,3 8,6 7,9 7,0 6,2 13 7 21 11 W 1030,0 1,7 0 0,1
21.02.2019 22:00:00 9,1 8,0 8,6 7,9 7,0 6,2 12 6 34 19 W 1029,8 2,1 0 0,2
21.02.2019 21:00:00 10,5 6,6 9,9 7,9 7,0 6,2 23 12 37 20 W 1028,7 7 0 0,0
21.02.2019 20:00:00 10,6 5,8 9,8 7,9 7,0 6,2 16 8 31 17 WSW 1028,3 11 0 0,0
21.02.2019 19:00:00 10,8 4,9 9,9 8,1 7,0 6,2 14 8 22 12 WSW 1027,9 17 0 0,0
21.02.2019 18:00:00 10,8 4,9 9,9 8,6 7,0 6,2 12 7 25 14 WSW 1027,3 22 0 0,0
21.02.2019 17:00:00 11,5 4,7 11,0 9,2 6,9 6,2 16 9 29 16 W 1027,1 22 0 0,0
21.02.2019 16:00:00 11,8 4,8 11,5 9,9 6,6 6,2 20 11 31 17 W 1026,9 19 4 0,0
21.02.2019 15:00:00 11,7 4,7 11,7 10,5 6,2 6,2 22 12 35 19 WSW 1026,7 19 32 0,0
21.02.2019 14:00:00 11,9 5,0 12,5 9,5 5,7 6,2 17 9 33 18 WSW 1026,5 12 3 0,0
21.02.2019 13:00:00 11,0 5,8 11,6 9,1 5,3 6,2 14 8 28 15 WSW 1026,7 8 17 0,0
21.02.2019 12:00:00 9,6 5,1 9,3 7,3 4,9 6,2 16 9 24 13 SW 1027,1 7 0 0,0
21.02.2019 11:00:00 9,3 4,9 9,4 6,8 4,6 6,2 17 9 26 14 WSW 1027,2 10 6 0,0
21.02.2019 10:00:00 9,1 4,9 9,6 5,1 4,4 6,2 16 9 23 12 SW 1026,8 9 44 0,0
21.02.2019 09:00:00 6,5 4,0 6,1 3,1 4,5 6,2 10 5 14 7 SSW 1026,5 8 7 0,0
21.02.2019 08:00:00 5,3 2,6 3,0 2,9 4,7 6,2 11 6 17 9 SW 1026,0 9 0 0,0
21.02.2019 07:00:00 5,0 2,5 3,0 3,0 4,8 6,2 13 7 18 10 SSW 1025,8 9 0 0,0
21.02.2019 06:00:00 5,0 2,4 2,7 3,3 4,9 6,2 13 7 16 9 SSW 1025,9 9 0 0,0
21.02.2019 05:00:00 5,5 2,8 3,7 3,4 5,1 6,2 9 5 12 6 SW 1025,9 11 0 0,0
21.02.2019 04:00:00 5,6 2,5 2,0 3,6 5,3 6,2 9 5 19 10 SW 1025,9 13 0 0,0
21.02.2019 03:00:00 5,1 2,3 2,2 4,1 5,4 6,2 12 6 18 10 SSW 1025,8 12 0 0,0
21.02.2019 02:00:00 7,0 3,1 5,5 4,6 5,5 6,2 13 7 22 12 SW 1025,6 15 0 0,0
21.02.2019 01:00:00 7,2 3,2 5,7 4,3 5,7 6,2 12 7 17 9 SW 1025,4 16 0 0,0
21.02.2019 00:00:00 5,7 2,2 2,9 4,4 5,9 6,2 11 6 16 9 SSW 1025,1 17 0 0,0
20.02.2019 23:00:00 6,8 2,4 3,9 5,1 6,1 6,1 9 5 13 7 SW 1024,9 17 0 0,0
20.02.2019 22:00:00 7,4 2,5 4,4 5,5 6,3 6,1 8 4 11 6 SSW 1024,8 18 0 0,0
20.02.2019 21:00:00 7,7 2,6 4,7 6,0 6,5 6,1 6 3 10 5 S 1024,8 21 0 0,0
20.02.2019 20:00:00 8,2 2,8 5,9 6,6 6,6 6,1 9 5 14 8 SW 1024,7 26 0 0,0
20.02.2019 19:00:00 9,3 2,4 7,8 7,2 6,7 6,1 13 7 16 9 WSW 1024,3 40 0 0,0
20.02.2019 18:00:00 9,7 2,6 8,4 7,8 6,7 6,1 10 5 24 13 WSW 1023,8 42 0 0,0
20.02.2019 17:00:00 10,5 2,4 9,3 8,9 6,6 6,1 13 7 23 13 WSW 1023,3 45 16 0,0
20.02.2019 16:00:00 10,8 2,7 10,7 9,3 6,3 6,1 14 8 27 15 WSW 1023,2 20 16 0,0
20.02.2019 15:00:00 10,7 3,4 10,8 9,7 6,0 6,1 16 9 29 16 SW 1023,3 16 22 0,0
20.02.2019 14:00:00 10,2 3,1 10,5 9,8 5,5 6,1 18 10 29 16 WSW 1023,4 20 24 0,0
20.02.2019 13:00:00 10,1 3,5 11,5 8,6 5,0 6,1 18 10 27 15 WSW 1023,7 21 2 0,0
20.02.2019 12:00:00 9,2 2,9 10,1 7,3 4,6 6,1 12 6 24 13 SW 1023,8 22 1 0,0
20.02.2019 11:00:00 8,1 2,5 8,4 5,7 4,4 6,1 15 8 23 12 SSW 1023,5 25 0 0,0
20.02.2019 10:00:00 7,2 1,9 7,1 4,3 4,3 6,1 10 6 17 9 SW 1023,3 32 0 0,0
20.02.2019 09:00:00 5,6 1,7 5,1 3,3 4,3 6,1 10 5 15 8 SW 1022,8 26 0 0,0
20.02.2019 08:00:00 4,4 1,1 2,0 3,0 4,4 6,1 10 6 18 10 SW 1022,3 20 0 0,0
20.02.2019 07:00:00 5,5 1,9 4,4 3,4 4,4 6,1 14 8 21 11 SW 1021,7 17 0 0,0
20.02.2019 06:00:00 5,1 2,1 3,8 3,4 4,5 6,1 9 5 17 9 SW 1021,7 16 0 0,0
20.02.2019 05:00:00 5,2 2,1 3,8 3,2 4,5 6,1 9 5 14 8 SW 1021,7 19 0 0,0
20.02.2019 04:00:00 4,9 2,0 3,5 3,0 4,7 6,1 9 5 17 9 SW 1021,7 22 0 0,0
20.02.2019 03:00:00 4,6 1,5 2,8 2,6 4,9 6,1 10 5 13 7 SW 1021,8 24 0 0,0
20.02.2019 02:00:00 5,1 1,5 1,4 2,9 5,1 6,0 8 4 16 8 SW 1021,8 24 0 0,0
20.02.2019 01:00:00 4,9 1,5 2,2 3,5 5,3 6,0 11 6 21 11 SW 1021,6 24 0 0,0
20.02.2019 00:00:00 5,0 1,7 3,3 3,6 5,5 6,0 12 6 19 10 SW 1021,4 30 0 0,0
19.02.2019 23:00:00 6,5 1,8 4,4 3,9 5,7 6,0 14 8 23 12 WSW 1021,4 32 0 0,0
19.02.2019 22:00:00 5,8 1,8 2,9 4,2 6,0 6,0 11 6 19 10 WSW 1021,2 23 0 0,0
19.02.2019 21:00:00 6,4 2,0 2,7 5,0 6,2 6,0 11 6 18 10 WSW 1020,9 26 0 0,0
19.02.2019 20:00:00 7,5 2,3 5,9 5,6 6,4 6,0 12 7 23 12 W 1020,5 26 0 0,0
19.02.2019 19:00:00 8,6 2,0 6,7 6,3 6,6 6,0 17 9 28 15 WSW 1020,0 28 0 0,0
19.02.2019 18:00:00 8,9 2,1 7,7 7,0 6,7 6,0 16 9 31 17 WSW 1019,5 37 0 0,0
19.02.2019 17:00:00 9,4 2,4 8,6 7,8 6,7 6,0 22 12 35 19 W 1019,3 39 0 0,0
19.02.2019 16:00:00 9,7 2,7 9,2 8,4 6,6 6,0 22 12 38 21 W 1019,2 28 4 0,0
19.02.2019 15:00:00 9,6 2,0 9,2 9,0 6,4 6,0 27 15 42 23 W 1019,0 33 19 0,0
19.02.2019 14:00:00 10,0 2,7 10,5 8,8 6,1 6,0 24 13 42 23 WSW 1018,9 24 15 0,0
19.02.2019 13:00:00 9,6 2,9 10,8 9,6 5,7 6,0 26 14 43 23 WSW 1018,9 23 45 0,0
19.02.2019 12:00:00 9,6 3,6 11,5 7,9 5,4 6,0 25 13 39 21 WSW 1019,0 22 35 0,0
19.02.2019 11:00:00 8,5 3,5 9,6 7,0 5,2 6,0 22 12 34 18 WSW 1018,8 13 35 0,0
19.02.2019 10:00:00 7,5 3,8 7,2 5,8 5,1 6,0 22 12 35 19 WSW 1018,8 9 0 0,0
19.02.2019 09:00:00 7,3 4,4 6,9 5,3 5,1 6,0 15 8 22 12 WSW 1018,2 8 0 0,0
19.02.2019 08:00:00 7,1 4,4 6,5 5,2 5,1 6,0 14 8 21 11 WSW 1017,5 10 0 0,0
19.02.2019 07:00:00 6,9 4,5 6,0 5,1 5,0 6,0 12 6 21 11 SW 1017,1 9 0 0,1
19.02.2019 06:00:00 7,3 4,5 6,0 5,0 5,0 6,0 15 8 23 13 WSW 1016,9 6 0 0,1
19.02.2019 05:00:00 8,2 3,3 7,4 4,7 5,0 6,0 14 8 26 14 WSW 1016,3 14 0 0,0
19.02.2019 04:00:00 8,4 2,4 6,9 4,1 5,1 6,0 16 9 27 15 WSW 1016,0 28 0 0,0
19.02.2019 03:00:00 8,9 2,2 6,7 4,1 5,2 5,9 17 9 25 14 SW 1015,9 36 0 0,0
19.02.2019 02:00:00 8,1 2,2 5,4 4,1 5,3 5,9 11 6 25 14 SW 1015,9 34 0 0,0
19.02.2019 01:00:00 8,4 1,9 6,1 4,0 5,5 5,9 13 7 20 11 SW 1016,0 36 0 0,0
19.02.2019 00:00:00 7,3 1,6 3,9 4,2 5,7 5,9 12 6 17 9 SW 1016,1 34 0 0,0
18.02.2019 23:00:00 9,4 1,4 6,8 4,4 6,0 5,9 14 8 21 11 SW 1016,0 37 0 0,0
18.02.2019 22:00:00 9,2 1,2 5,7 4,8 6,3 5,9 12 6 21 11 SW 1016,1 37 0 0,0
18.02.2019 21:00:00 10,5 0,3 7,2 5,2 6,6 5,9 14 7 22 12 WSW 1015,9 46 0 0,0
18.02.2019 20:00:00 10,1 -0,9 2,6 6,0 6,9 5,9 7 4 21 11 SSW 1015,6 52 0 0,0
18.02.2019 19:00:00 12,3 -1,3 8,7 7,0 7,2 5,9 15 8 25 14 SSW 1015,6 55 0 0,0
18.02.2019 18:00:00 13,4 -1,6 10,5 8,5 7,3 5,9 21 11 28 15 SSW 1015,5 60 29 0,0
18.02.2019 17:00:00 15,9 -0,8 12,3 10,4 7,2 5,9 11 6 18 10 S 1015,2 63 60 0,0
18.02.2019 16:00:00 17,6 -2,2 15,2 11,8 6,9 5,9 10 5 18 10 S 1015,7 58 60 0,0
18.02.2019 15:00:00 17,7 0,7 17,5 13,1 6,2 5,9 10 6 15 8 SW 1016,3 59 60 0,0
18.02.2019 14:00:00 17,3 0,4 18,0 12,6 5,4 5,9 7 4 12 7 WSW 1017,1 52 60 0,0
18.02.2019 13:00:00 16,1 2,4 17,4 11,0 4,6 5,9 8 4 13 7 WSW 1018,0 48 60 0,0
18.02.2019 12:00:00 14,6 1,4 16,5 8,7 3,9 5,9 4 2 8 4 WNW 1018,7 42 60 0,0
18.02.2019 11:00:00 12,8 0,3 13,5 6,0 3,4 5,9 6 4 13 7 S 1019,1 36 60 0,0
18.02.2019 10:00:00 9,9 -0,2 9,7 3,4 3,2 5,9 6 3 18 10 S 1019,5 35 60 0,0
18.02.2019 09:00:00 7,3 -0,5 5,8 1,5 3,3 5,9 11 6 17 9 SSE 1019,9 35 35 0,0
18.02.2019 08:00:00 5,7 -1,1 2,1 1,1 3,5 5,9 11 6 14 8 S 1020,0 36 0 0,0
18.02.2019 07:00:00 6,8 -1,0 0,5 1,3 3,7 5,9 5 3 12 6 S 1019,9 38 0 0,0
18.02.2019 06:00:00 7,0 -0,8 2,6 1,6 3,9 5,9 10 5 14 8 S 1020,2 39 0 0,0
18.02.2019 05:00:00 6,2 -0,7 -0,1 1,8 4,1 5,9 6 4 15 8 S 1020,4 40 0 0,0
18.02.2019 04:00:00 7,3 -0,6 3,2 2,2 4,3 5,9 8 5 16 9 S 1020,4 36 0 0,0
18.02.2019 03:00:00 7,6 -0,3 3,4 2,4 4,5 5,9 9 5 18 10 S 1020,6 40 0 0,0
18.02.2019 02:00:00 8,4 -0,5 1,7 2,6 4,8 5,9 7 4 13 7 S 1020,8 37 0 0,0
18.02.2019 01:00:00 8,2 -0,3 2,6 3,0 5,0 5,9 8 5 16 9 S 1020,9 37 0 0,0
18.02.2019 00:00:00 9,1 -0,5 2,0 3,4 5,3 5,9 6 4 19 11 S 1020,9 37 0 0,0
17.02.2019 23:00:00 9,0 -0,2 3,0 3,9 5,6 5,9 11 6 18 10 SSW 1020,9 38 0 0,0
17.02.2019 22:00:00 10,2 -0,3 2,8 4,4 5,8 5,9 7 4 20 11 S 1020,8 35 0 0,0
17.02.2019 21:00:00 10,1 -0,1 4,9 5,0 6,1 5,9 9 5 17 9 SSW 1020,5 34 0 0,0
17.02.2019 20:00:00 11,6 -0,3 4,5 5,9 6,4 5,9 7 4 17 9 SW 1020,3 38 0 0,0
17.02.2019 19:00:00 13,1 -0,6 5,8 6,9 6,6 5,9 7 4 11 6 SSW 1020,0 46 0 0,0
17.02.2019 18:00:00 14,1 0,4 5,1 8,5 6,6 5,9 6 4 11 6 S 1019,7 48 26 0,0
17.02.2019 17:00:00 16,3 2,9 12,3 10,2 6,3 5,9 5 3 8 4 S 1019,6 49 60 0,0
17.02.2019 16:00:00 16,5 3,6 14,5 10,6 5,9 5,9 6 4 15 8 S 1020,1 49 60 0,0
17.02.2019 15:00:00 16,3 1,9 16,3 11,0 5,3 5,8 10 5 19 10 SSE 1020,5 41 60 0,0
17.02.2019 14:00:00 16,1 0,3 16,4 10,7 4,6 5,8 11 6 22 12 S 1020,9 33 60 0,0
17.02.2019 13:00:00 15,5 0,7 16,2 9,3 3,8 5,8 12 7 21 11 SSW 1021,6 31 60 0,0
17.02.2019 12:00:00 11,9 3,7 14,4 7,1 3,2 5,8 7 4 10 6 ENE 1022,5 18 60 0,0
17.02.2019 11:00:00 9,2 3,6 12,1 4,3 2,9 5,8 8 4 11 6 NE 1023,0 15 60 0,0
17.02.2019 10:00:00 4,7 1,7 5,9 1,3 2,9 5,8 4 2 13 7 ENE 1023,4 11 60 0,0
17.02.2019 09:00:00 2,1 -0,4 1,5 0,9 3,0 5,8 4 2 8 4 NE 1023,8 10 29 0,0
17.02.2019 08:00:00 2,2 -0,6 -2,0 0,9 3,1 5,8 3 1 8 5 ENE 1023,9 16 0 0,0
17.02.2019 07:00:00 1,1 -1,0 -2,3 1,0 3,3 5,8 5 3 6 4 E 1024,0 13 0 0,0
17.02.2019 06:00:00 1,0 -1,4 -1,6 1,1 3,4 5,8 4 2 9 5 ENE 1024,3 13 0 0,0
17.02.2019 05:00:00 3,1 0,0 -2,0 1,1 3,6 5,8 3 2 7 4 SSE 1024,4 19 0 0,0
17.02.2019 04:00:00 1,5 -0,9 -2,1 1,2 3,9 5,8 5 3 7 4 NNE 1024,9 15 0 0,0
17.02.2019 03:00:00 1,5 -0,8 -2,0 1,4 4,2 5,8 4 2 6 3 ENE 1025,4 14 0 0,0
17.02.2019 02:00:00 2,7 -0,3 -1,3 1,8 4,4 5,8 5 3 6 4 ENE 1025,3 15 0 0,0
17.02.2019 01:00:00 3,0 -0,9 -1,7 2,2 4,8 5,8 3 1 8 4 SSW 1025,8 20 0 0,0
17.02.2019 00:00:00 5,3 0,4 -0,7 2,7 5,1 5,8 3 2 7 4 SE 1025,7 16 0 0,0
16.02.2019 23:00:00 4,4 0,5 -1,1 3,3 5,4 5,8 4 2 6 4 S 1026,0 16 0 0,0
16.02.2019 22:00:00 4,9 0,6 -0,3 3,9 5,7 5,8 3 2 7 4 S 1026,0 15 0 0,0

tt = temperature
td = dewpoint
tt 5cm = temperature 5cm
tt -5cm = temperature -5cm
tt -20cm = temperature -20cm
tt -100cm = temperature -100cm
ff = wind speed
fx = gusts
dd = wind direction
ppp = reduced air pressure
vv = visibility
sd = sunshine duration
rr = precipitation

Next stations